SCP
1 3 3 2 2 2 1 1 2 2 2 1 2 1 0 -0 1 2 3 3 2 2 3 3 4 5 5 4 4 2 1 1 1 2 1 1 1 1 0 1 1 1 2
0 0 6 5 6 4 2 1 3 3 2 2 1 0 -0 2 3 2 2 3 2 2 2 2 2 3 3 1 2 1 1 1 1 1 1 1 0 0 0 -0 0 1 1
0 0 0 2 3 4 4 3 3 2 1 1 3 4 4 4 2 1 1 1 0 0 0 0 0 0 0 0 0 0 0 0 0 0 1 0 0 0 0 0 0 0 1
0 0 0 0 1 1 2 2 2 1 1 2 1 2 2 2 3 1 0 0 0 0 0 0 0 0 0 0 0 0 0 0 0 0 0 0 0 0 0 0 0 0 0
0 -0 1 1 1 1 1 1 1 1 1 2 2 2 4 3 1 0 0 0 0 0 0 0 0 0 0 0 0 0 0 0 0 0 0 0 0 0 0 0 0 0 0
-0 -0 0 0 1 1 1 1 1 2 2 3 3 4 3 1 0 0 0 0 0 0 0 0 0 0 0 0 0 0 0 0 0 0 0 0 0 0 0 0 0 0 0
-0 0 0 1 0 0 1 1 1 2 2 2 3 4 3 1 1 0 0 0 0 0 0 0 0 0 0 0 0 0 0 0 0 0 0 0 0 0 0 0 0 0 0
0 0 0 2 1 1 1 0 2 3 3 3 2 2 1 0 0 1 0 0 0 0 0 0 0 0 0 0 0 0 0 0 0 0 0 0 0 0 0 0 0 0 0
0 -0 0 1 1 2 2 3 3 2 2 1 1 1 2 1 0 1 0 0 0 0 0 0 0 0 0 0 0 0 0 0 0 0 0 0 0 0 0 0 0 0 0
0 0 0 1 1 3 3 3 2 1 1 0 0 1 0 0 0 0 0 0 0 0 0 0 0 0 0 0 0 0 0 0 0 0 0 0 0 0 0 0 0 0 0
0 0 0 1 3 3 3 2 1 0 0 0 0 0 0 0 0 0 0 0 0 0 0 0 0 0 0 0 0 0 0 0 0 0 0 0 0 0 0 0 0 0 0
0 0 0 0 2 2 2 1 0 0 0 0 0 0 0 0 0 0 0 0 0 0 0 0 0 0 0 0 0 0 0 0 0 0 0 0 0 0 0 0 0 0 0
0 0 0 0 2 2 1 0 0 0 0 0 0 0 0 0 0 0 0 0 0 0 0 0 0 0 0 0 0 0 0 0 0 0 0 0 0 0 0 0 0 0 0
0 0 0 2 3 2 1 0 0 0 0 0 0 0 0 0 0 0 0 0 0 0 0 0 0 0 0 0 0 0 0 0 0 0 0 0 0 0 0 0 0 0 0
1 1 2 1 0 0 0 0 0 0 0 0 0 0 0 0 0 0 0 0 0 0 0 0 0 0 0 0 0 0 0 0 0 0 0 0 0 0 0 0 0 0 0
0 0 0 0 0 0 0 0 0 0 0 0 0 0 0 0 0 0 0 0 0 0 0 0 0 0 0 0 0 0 0 0 0 0 0 0 0 0 0 0 0 0 0
0 0 0 0 0 0 0 0 0 0 0 0 0 0 0 0 0 0 0 0 0 0 0 0 0 0 0 0 0 0 0 0 0 0 0 0 0 0 0 0 0 0 0
0 0 0 0 0 0 0 0 0 0 0 0 0 0 0 0 0 0 0 0 0 0 0 0 0 0 0 0 0 0 0 0 0 0 0 0 0 0 0 0 0 0 0
0 0 0 0 0 0 0 0 0 0 0 0 0 0 0 0 0 0 0 0 0 0 0 0 0 0 0 0 0 0 0 0 0 0 0 0 0 0 0 0 0 0 0
0 0 0 0 0 0 0 0 0 0 0 0 0 0 0 0 0 0 0 0 0 0 0 0 0 0 0 0 0 0 0 0 0 0 0 0 0 0 0 0 0 0 0
0 -0 0 0 0 0 0 0 0 0 0 0 0 0 0 0 0 0 0 0 0 0 0 0 0 0 0 0 0 0 0 0 0 0 0 0 0 0 0 0 0 0 0
-0 0 0 0 0 0 0 0 0 0 0 0 0 0 0 0 0 0 0 0 0 0 0 0 0 0 0 0 0 0 0 0 0 0 0 0 0 0 0 0 0 0 0
-0 -0 -0 -0 0 0 0 0 0 0 0 0 0 0 0 0 0 0 0 0 0 0 0 0 0 0 0 0 0 0 0 0 0 0 0 0 0 0 0 0 0 0 0
0 0 0 0 0 0 0 0 0 0 0 0 0 0 0 0 0 0 0 0 0 0 0 0 0 0 0 0 0 0 0 0 0 0 0 0 0 0 0 0 0 0 0
0 0 0 0 0 0 0 0 0 0 0 0 0 0 0 0 0 0 0 0 0 0 0 0 0 0 0 0 0 0 0 0 0 0 0 0 0 0 0 0 0 0 0
0 0 0 0 0 0 0 0 0 0 0 0 0 0 0 0 0 0 0 0 0 0 0 -0 0 0 0 0 0 0 0 0 0 0 0 0 0 0 0 0 0 0 0
Wind_Speed_500mb
50 51 63 62 68 64 66 67 65 52 38 33 32 20 24 23 25 27 25 22 31 31 29 29 26 25 24 24 29 36 42 50 52 56 57 59 58 58 60 64 67 58 42
38 2 57 68 69 66 61 57 59 51 42 36 36 19 22 34 34 31 34 31 33 15 13 10 12 13 10 16 26 38 39 38 36 43 54 37 57 49 44 50 54 46 55
40 19 54 50 55 54 55 51 51 47 42 45 41 44 34 34 25 18 21 14 5 3 3 8 10 5 12 19 23 28 33 39 37 28 39 38 29 67 59 62 64 56 48
11 35 27 14 39 40 44 41 43 46 44 40 49 51 36 20 21 26 10 14 12 9 9 9 10 13 19 23 29 33 41 43 42 44 37 40 44 55 68 60 68 66 61
32 46 56 37 33 41 45 44 40 35 47 44 32 34 28 40 41 26 19 17 14 11 8 13 16 19 25 30 36 45 51 44 38 38 46 52 44 45 56 73 57 55 59
31 62 54 47 41 38 40 42 43 43 37 45 34 39 41 43 31 26 21 12 7 10 14 17 20 25 29 36 42 48 52 32 36 51 47 47 47 50 54 65 72 71 65
74 39 38 54 40 36 33 28 36 36 35 38 43 42 42 34 29 32 25 16 13 3 13 15 23 28 35 41 49 58 46 36 46 48 56 47 54 45 50 57 64 66 67
54 68 49 43 44 46 36 39 34 35 46 51 47 47 42 38 37 26 29 23 12 7 10 19 27 35 39 40 44 53 44 50 42 52 53 47 46 49 52 59 66 73 69
50 75 72 62 50 44 37 36 37 45 46 45 49 48 38 37 36 34 23 25 17 9 13 23 32 37 40 38 39 45 45 46 56 55 44 47 60 67 61 54 54 61 70
60 43 47 55 43 50 46 44 44 45 46 49 55 45 42 39 31 33 25 16 5 13 22 28 32 37 39 38 42 52 56 57 50 50 64 65 52 51 56 50 49 50 59
48 45 33 53 66 62 56 52 49 48 41 44 41 39 36 29 20 18 14 6 10 19 27 32 37 35 37 40 49 57 59 51 61 58 48 49 52 46 46 48 53 56 56
29 31 31 27 62 61 61 58 51 41 36 36 33 32 28 25 23 15 9 10 17 25 32 35 39 41 40 45 52 57 57 50 47 53 54 41 49 55 53 52 51 54 61
37 43 41 44 60 66 64 61 52 40 37 31 32 30 23 17 13 7 12 17 23 32 39 42 44 46 45 48 51 43 43 49 54 52 44 48 45 43 44 47 54 53 46
7 15 33 56 68 67 66 57 47 43 33 26 26 22 19 12 4 9 17 25 33 40 42 43 49 50 45 40 46 48 54 57 51 44 38 39 38 43 52 51 50 49 55
50 57 64 77 74 46 52 54 48 41 33 31 21 10 6 1 7 17 24 33 39 43 49 52 47 42 31 39 45 52 51 47 42 37 37 34 43 37 39 43 55 63 58
37 58 71 72 69 55 57 56 43 39 28 21 15 6 0 6 14 23 31 39 48 53 50 44 37 28 35 43 43 50 48 40 39 36 45 44 40 36 48 48 47 53 59
47 52 51 57 55 54 53 44 37 30 23 12 6 2 6 13 23 32 38 44 47 46 40 31 30 34 35 41 47 51 42 37 35 37 43 47 36 37 39 48 54 55 49
50 46 43 42 43 48 44 36 29 28 16 6 2 8 15 22 29 35 38 42 39 35 34 31 27 33 37 42 47 48 40 30 30 37 36 36 36 35 45 58 67 69 65
50 46 39 36 37 40 35 32 24 18 9 3 10 17 22 29 33 36 37 38 40 33 23 21 27 31 34 42 43 49 42 31 36 33 25 32 37 48 59 72 83 76 71
32 35 24 30 36 28 22 13 10 5 4 14 20 22 26 29 30 32 37 32 27 24 27 27 27 28 28 36 45 46 36 32 39 34 25 29 36 49 60 67 64 70 71
39 29 21 18 26 23 22 13 8 11 17 18 16 21 27 26 26 32 29 27 26 28 29 30 28 20 26 37 38 41 35 35 46 40 27 36 50 54 55 58 60 59 59
38 35 30 23 24 24 9 10 11 15 15 14 16 18 22 22 23 30 28 27 27 28 30 27 28 24 21 28 36 32 32 36 44 37 33 44 52 50 52 60 63 59 52
37 30 26 25 21 17 14 11 14 14 14 15 18 21 24 25 20 27 24 23 25 22 25 29 31 30 27 32 34 31 34 30 33 27 34 40 47 50 57 67 75 57 48
32 28 25 25 24 21 18 18 17 18 20 20 22 24 25 24 15 7 13 16 27 34 25 23 26 29 30 34 43 41 38 34 34 31 31 39 49 52 61 71 81 63 50
30 25 25 25 23 16 16 19 21 21 22 20 20 19 17 21 23 25 27 26 31 39 38 33 33 37 42 47 48 46 43 38 33 33 33 43 54 56 69 76 87 76 65
32 30 27 25 21 14 17 20 22 22 22 22 22 20 22 24 25 25 25 26 31 37 41 44 43 43 42 40 42 41 32 23 28 32 36 48 54 59 69 80 90 88 73
Wind_Direction_500mb
206 190 164 159 159 171 179 181 173 188 168 177 167 165 177 142 200 205 206 217 238 242 258 258 266 275 291 295 296 299 302 299 296 299 295 292 288 286 289 304 285 276 265
201 25 165 150 153 163 178 179 177 183 171 153 136 163 188 177 180 205 225 240 257 260 263 284 287 303 333 316 320 315 325 332 332 336 324 318 310 309 291 281 299 309 308
15 227 311 163 165 169 173 177 179 177 162 155 167 179 179 174 198 233 240 199 182 94 40 29 37 12 316 344 346 339 342 335 322 316 325 324 312 316 309 301 299 294 295
241 229 147 250 155 163 174 174 178 174 160 173 178 191 189 189 169 193 181 141 124 98 67 39 15 349 334 339 346 344 343 336 329 315 298 287 304 323 312 309 310 306 299
195 259 168 179 164 169 168 179 181 172 175 174 174 159 172 175 182 192 159 140 132 114 67 31 22 9 358 354 348 344 343 337 331 332 318 322 321 311 314 317 319 314 316
170 230 163 162 157 153 161 176 182 174 177 168 166 167 184 181 188 147 133 120 85 73 46 31 13 359 351 346 343 343 343 343 315 320 326 321 324 320 315 313 312 311 311
185 187 160 148 153 162 161 179 174 162 165 162 178 175 179 179 144 122 143 144 131 320 1 10 357 349 343 339 336 338 343 320 316 319 320 321 312 319 316 314 313 312 310
192 202 193 166 154 164 170 171 163 166 166 177 178 179 172 148 129 148 146 152 185 251 337 345 339 335 334 332 326 326 328 323 316 311 307 315 317 307 306 309 315 313 311
185 203 177 175 160 160 165 162 168 169 172 170 160 145 137 141 165 160 168 174 165 99 309 326 326 325 326 319 314 313 313 309 306 314 318 303 298 299 304 303 300 306 307
181 198 175 167 177 169 168 171 168 162 163 160 143 143 156 168 163 159 176 187 245 309 325 327 319 320 321 314 312 306 306 312 318 304 303 307 310 304 303 309 304 299 298
190 197 173 168 158 157 157 157 155 157 157 147 148 159 166 163 153 165 195 244 305 317 325 321 322 317 311 308 303 303 306 306 299 307 307 299 306 302 296 293 289 287 287
178 180 185 210 155 154 154 150 151 152 152 152 147 145 143 158 167 190 231 292 310 319 319 319 315 311 306 303 300 300 304 306 297 294 305 308 301 302 305 302 297 295 290
211 213 205 196 156 153 148 150 148 149 154 149 150 145 149 174 194 229 288 305 311 314 317 315 312 309 304 301 305 305 294 294 306 312 304 304 313 322 314 311 311 311 307
203 233 216 154 145 144 141 144 147 149 153 157 151 149 168 188 251 293 301 310 313 318 316 312 308 311 312 310 301 304 306 313 316 314 317 321 323 304 310 309 307 307 305
82 81 94 116 114 121 136 133 146 140 146 144 136 122 95 55 286 299 311 314 318 313 312 313 317 320 326 302 302 306 313 315 316 320 323 312 297 310 308 307 306 308 309
59 89 99 106 117 128 123 127 116 121 122 107 101 106 305 350 300 310 313 316 313 314 317 320 329 310 302 306 313 322 325 324 322 326 314 318 323 306 299 300 303 303 305
89 89 91 105 117 127 122 117 115 115 102 102 113 52 321 310 315 315 317 313 317 320 326 326 308 315 316 312 316 319 322 321 334 325 314 314 318 326 332 334 328 323 316
89 87 91 93 99 113 117 121 124 128 113 162 261 317 324 323 318 318 316 318 319 313 310 316 326 318 313 314 318 320 327 329 321 304 314 319 322 327 325 325 322 318 316
111 107 109 111 116 116 121 118 115 126 146 320 331 328 323 322 321 321 317 312 312 321 336 323 312 313 316 316 318 321 327 326 319 320 328 320 335 337 329 320 321 319 320
116 94 77 96 102 100 105 120 138 156 305 338 347 341 331 325 333 317 318 329 338 342 326 327 321 318 322 314 316 322 329 331 322 324 330 347 327 327 324 322 320 315 316
130 114 119 108 85 103 122 118 66 16 356 354 353 336 331 342 328 329 344 343 347 344 342 332 335 336 317 318 321 326 325 324 328 322 330 332 334 336 334 332 328 321 316
110 94 94 99 108 101 96 67 30 13 1 354 349 347 348 351 353 352 358 3 353 336 335 345 341 332 329 315 305 301 305 318 324 331 335 325 335 337 345 344 337 324 316
123 130 118 102 90 100 95 55 38 25 17 15 14 7 2 360 8 10 349 0 352 334 353 344 333 332 327 313 304 316 318 327 329 321 315 332 335 341 344 348 350 339 332
127 123 112 96 78 62 58 50 40 31 23 20 13 16 6 6 4 21 336 2 337 344 346 336 336 333 331 333 331 337 336 336 335 316 326 339 344 344 349 352 357 353 347
121 114 103 93 83 66 56 51 42 37 33 29 24 22 20 8 9 33 26 16 355 355 4 348 346 339 341 337 341 340 337 334 329 320 332 339 341 347 353 356 360 359 354
121 116 109 102 94 79 66 57 51 44 41 40 37 30 27 20 20 18 8 3 358 3 3 1 358 353 347 342 339 340 344 341 319 330 329 330 339 348 351 357 358 1 358
Wind_Speed_850mb
50 51 63 62 68 64 66 67 65 52 38 33 32 20 24 23 25 27 25 22 31 31 29 29 26 25 24 24 29 36 42 50 52 56 57 59 58 58 60 64 67 58 42
38 2 57 68 69 66 61 57 59 51 42 36 36 19 22 34 34 31 34 31 33 15 13 10 12 13 10 16 26 38 39 38 36 43 54 37 57 49 44 50 54 46 55
40 19 54 50 55 54 55 51 51 47 42 45 41 44 34 34 25 18 21 14 5 3 3 8 10 5 12 19 23 28 33 39 37 28 39 38 29 67 59 62 64 56 48
11 35 27 14 39 40 44 41 43 46 44 40 49 51 36 20 21 26 10 14 12 9 9 9 10 13 19 23 29 33 41 43 42 44 37 40 44 55 68 60 68 66 61
32 46 56 37 33 41 45 44 40 35 47 44 32 34 28 40 41 26 19 17 14 11 8 13 16 19 25 30 36 45 51 44 38 38 46 52 44 45 56 73 57 55 59
31 62 54 47 41 38 40 42 43 43 37 45 34 39 41 43 31 26 21 12 7 10 14 17 20 25 29 36 42 48 52 32 36 51 47 47 47 50 54 65 72 71 65
74 39 38 54 40 36 33 28 36 36 35 38 43 42 42 34 29 32 25 16 13 3 13 15 23 28 35 41 49 58 46 36 46 48 56 47 54 45 50 57 64 66 67
54 68 49 43 44 46 36 39 34 35 46 51 47 47 42 38 37 26 29 23 12 7 10 19 27 35 39 40 44 53 44 50 42 52 53 47 46 49 52 59 66 73 69
50 75 72 62 50 44 37 36 37 45 46 45 49 48 38 37 36 34 23 25 17 9 13 23 32 37 40 38 39 45 45 46 56 55 44 47 60 67 61 54 54 61 70
60 43 47 55 43 50 46 44 44 45 46 49 55 45 42 39 31 33 25 16 5 13 22 28 32 37 39 38 42 52 56 57 50 50 64 65 52 51 56 50 49 50 59
48 45 33 53 66 62 56 52 49 48 41 44 41 39 36 29 20 18 14 6 10 19 27 32 37 35 37 40 49 57 59 51 61 58 48 49 52 46 46 48 53 56 56
29 31 31 27 62 61 61 58 51 41 36 36 33 32 28 25 23 15 9 10 17 25 32 35 39 41 40 45 52 57 57 50 47 53 54 41 49 55 53 52 51 54 61
37 43 41 44 60 66 64 61 52 40 37 31 32 30 23 17 13 7 12 17 23 32 39 42 44 46 45 48 51 43 43 49 54 52 44 48 45 43 44 47 54 53 46
7 15 33 56 68 67 66 57 47 43 33 26 26 22 19 12 4 9 17 25 33 40 42 43 49 50 45 40 46 48 54 57 51 44 38 39 38 43 52 51 50 49 55
50 57 64 77 74 46 52 54 48 41 33 31 21 10 6 1 7 17 24 33 39 43 49 52 47 42 31 39 45 52 51 47 42 37 37 34 43 37 39 43 55 63 58
37 58 71 72 69 55 57 56 43 39 28 21 15 6 0 6 14 23 31 39 48 53 50 44 37 28 35 43 43 50 48 40 39 36 45 44 40 36 48 48 47 53 59
47 52 51 57 55 54 53 44 37 30 23 12 6 2 6 13 23 32 38 44 47 46 40 31 30 34 35 41 47 51 42 37 35 37 43 47 36 37 39 48 54 55 49
50 46 43 42 43 48 44 36 29 28 16 6 2 8 15 22 29 35 38 42 39 35 34 31 27 33 37 42 47 48 40 30 30 37 36 36 36 35 45 58 67 69 65
50 46 39 36 37 40 35 32 24 18 9 3 10 17 22 29 33 36 37 38 40 33 23 21 27 31 34 42 43 49 42 31 36 33 25 32 37 48 59 72 83 76 71
32 35 24 30 36 28 22 13 10 5 4 14 20 22 26 29 30 32 37 32 27 24 27 27 27 28 28 36 45 46 36 32 39 34 25 29 36 49 60 67 64 70 71
39 29 21 18 26 23 22 13 8 11 17 18 16 21 27 26 26 32 29 27 26 28 29 30 28 20 26 37 38 41 35 35 46 40 27 36 50 54 55 58 60 59 59
38 35 30 23 24 24 9 10 11 15 15 14 16 18 22 22 23 30 28 27 27 28 30 27 28 24 21 28 36 32 32 36 44 37 33 44 52 50 52 60 63 59 52
37 30 26 25 21 17 14 11 14 14 14 15 18 21 24 25 20 27 24 23 25 22 25 29 31 30 27 32 34 31 34 30 33 27 34 40 47 50 57 67 75 57 48
32 28 25 25 24 21 18 18 17 18 20 20 22 24 25 24 15 7 13 16 27 34 25 23 26 29 30 34 43 41 38 34 34 31 31 39 49 52 61 71 81 63 50
30 25 25 25 23 16 16 19 21 21 22 20 20 19 17 21 23 25 27 26 31 39 38 33 33 37 42 47 48 46 43 38 33 33 33 43 54 56 69 76 87 76 65
32 30 27 25 21 14 17 20 22 22 22 22 22 20 22 24 25 25 25 26 31 37 41 44 43 43 42 40 42 41 32 23 28 32 36 48 54 59 69 80 90 88 73
Wind_Direction_850mb
206 190 164 159 159 171 179 181 173 188 168 177 167 165 177 142 200 205 206 217 238 242 258 258 266 275 291 295 296 299 302 299 296 299 295 292 288 286 289 304 285 276 265
201 25 165 150 153 163 178 179 177 183 171 153 136 163 188 177 180 205 225 240 257 260 263 284 287 303 333 316 320 315 325 332 332 336 324 318 310 309 291 281 299 309 308
15 227 311 163 165 169 173 177 179 177 162 155 167 179 179 174 198 233 240 199 182 94 40 29 37 12 316 344 346 339 342 335 322 316 325 324 312 316 309 301 299 294 295
241 229 147 250 155 163 174 174 178 174 160 173 178 191 189 189 169 193 181 141 124 98 67 39 15 349 334 339 346 344 343 336 329 315 298 287 304 323 312 309 310 306 299
195 259 168 179 164 169 168 179 181 172 175 174 174 159 172 175 182 192 159 140 132 114 67 31 22 9 358 354 348 344 343 337 331 332 318 322 321 311 314 317 319 314 316
170 230 163 162 157 153 161 176 182 174 177 168 166 167 184 181 188 147 133 120 85 73 46 31 13 359 351 346 343 343 343 343 315 320 326 321 324 320 315 313 312 311 311
185 187 160 148 153 162 161 179 174 162 165 162 178 175 179 179 144 122 143 144 131 320 1 10 357 349 343 339 336 338 343 320 316 319 320 321 312 319 316 314 313 312 310
192 202 193 166 154 164 170 171 163 166 166 177 178 179 172 148 129 148 146 152 185 251 337 345 339 335 334 332 326 326 328 323 316 311 307 315 317 307 306 309 315 313 311
185 203 177 175 160 160 165 162 168 169 172 170 160 145 137 141 165 160 168 174 165 99 309 326 326 325 326 319 314 313 313 309 306 314 318 303 298 299 304 303 300 306 307
181 198 175 167 177 169 168 171 168 162 163 160 143 143 156 168 163 159 176 187 245 309 325 327 319 320 321 314 312 306 306 312 318 304 303 307 310 304 303 309 304 299 298
190 197 173 168 158 157 157 157 155 157 157 147 148 159 166 163 153 165 195 244 305 317 325 321 322 317 311 308 303 303 306 306 299 307 307 299 306 302 296 293 289 287 287
178 180 185 210 155 154 154 150 151 152 152 152 147 145 143 158 167 190 231 292 310 319 319 319 315 311 306 303 300 300 304 306 297 294 305 308 301 302 305 302 297 295 290
211 213 205 196 156 153 148 150 148 149 154 149 150 145 149 174 194 229 288 305 311 314 317 315 312 309 304 301 305 305 294 294 306 312 304 304 313 322 314 311 311 311 307
203 233 216 154 145 144 141 144 147 149 153 157 151 149 168 188 251 293 301 310 313 318 316 312 308 311 312 310 301 304 306 313 316 314 317 321 323 304 310 309 307 307 305
82 81 94 116 114 121 136 133 146 140 146 144 136 122 95 55 286 299 311 314 318 313 312 313 317 320 326 302 302 306 313 315 316 320 323 312 297 310 308 307 306 308 309
59 89 99 106 117 128 123 127 116 121 122 107 101 106 305 350 300 310 313 316 313 314 317 320 329 310 302 306 313 322 325 324 322 326 314 318 323 306 299 300 303 303 305
89 89 91 105 117 127 122 117 115 115 102 102 113 52 321 310 315 315 317 313 317 320 326 326 308 315 316 312 316 319 322 321 334 325 314 314 318 326 332 334 328 323 316
89 87 91 93 99 113 117 121 124 128 113 162 261 317 324 323 318 318 316 318 319 313 310 316 326 318 313 314 318 320 327 329 321 304 314 319 322 327 325 325 322 318 316
111 107 109 111 116 116 121 118 115 126 146 320 331 328 323 322 321 321 317 312 312 321 336 323 312 313 316 316 318 321 327 326 319 320 328 320 335 337 329 320 321 319 320
116 94 77 96 102 100 105 120 138 156 305 338 347 341 331 325 333 317 318 329 338 342 326 327 321 318 322 314 316 322 329 331 322 324 330 347 327 327 324 322 320 315 316
130 114 119 108 85 103 122 118 66 16 356 354 353 336 331 342 328 329 344 343 347 344 342 332 335 336 317 318 321 326 325 324 328 322 330 332 334 336 334 332 328 321 316
110 94 94 99 108 101 96 67 30 13 1 354 349 347 348 351 353 352 358 3 353 336 335 345 341 332 329 315 305 301 305 318 324 331 335 325 335 337 345 344 337 324 316
123 130 118 102 90 100 95 55 38 25 17 15 14 7 2 360 8 10 349 0 352 334 353 344 333 332 327 313 304 316 318 327 329 321 315 332 335 341 344 348 350 339 332
127 123 112 96 78 62 58 50 40 31 23 20 13 16 6 6 4 21 336 2 337 344 346 336 336 333 331 333 331 337 336 336 335 316 326 339 344 344 349 352 357 353 347
121 114 103 93 83 66 56 51 42 37 33 29 24 22 20 8 9 33 26 16 355 355 4 348 346 339 341 337 341 340 337 334 329 320 332 339 341 347 353 356 360 359 354
121 116 109 102 94 79 66 57 51 44 41 40 37 30 27 20 20 18 8 3 358 3 3 1 358 353 347 342 339 340 344 341 319 330 329 330 339 348 351 357 358 1 358